"FRM_AIS_EDR_2209.DAT           ",2005-10-03T06:17:53.79 ,"1/0076400268.47669",    0,    0,  274896,"AIS","B1","B1","B1","B1","PISd",0,0,0,0,"B1", 0,15,   0, 0,    0,"AIS","N/A    ","OK ","OK ",    001171.384,    -086.088,    0033.303,    0005.107,    0069.180
"FRM_AIS_EDR_2209.DAT           ",2005-10-03T06:18:01.33 ,"1/0076400276.17732",    0,    1,  274896,"AIS","B1","B1","B1","B1","PISd",0,0,0,0,"B1", 0,15,   0, 0,    0,"AIS","N/A    ","OK ","OK ",    001161.010,    -086.242,    0037.621,    0005.397,    0068.867
"FRM_AIS_EDR_2209.DAT           ",2005-10-03T06:18:08.88 ,"1/0076400283.53331",    0,    2,  274896,"AIS","B1","B1","B1","B1","PISd",0,0,0,0,"B1", 0,15,   0, 0,    0,"AIS","N/A    ","OK ","OK ",    001150.667,    -086.374,    0042.304,    0005.711,    0068.552
"FRM_AIS_EDR_2209.DAT           ",2005-10-03T06:18:16.42 ,"1/0076400291.23395",    0,    3,  274896,"AIS","B1","B1","B1","B1","PISd",0,0,0,0,"B1", 0,15,   0, 0,    0,"AIS","N/A    ","OK ","OK ",    001140.356,    -086.479,    0047.326,    0006.048,    0068.235
"FRM_AIS_EDR_2209.DAT           ",2005-10-03T06:18:23.96 ,"1/0076400298.58994",    0,    4,  274896,"AIS","B1","B1","B1","B1","PISd",0,0,0,0,"B1", 0,15,   0, 0,    0,"AIS","N/A    ","OK ","OK ",    001130.076,    -086.556,    0052.641,    0006.405,    0067.917
"FRM_AIS_EDR_2209.DAT           ",2005-10-03T06:18:31.51 ,"1/0076400306.29058",    0,    5,  274896,"AIS","B1","B1","B1","B1","PISd",0,0,0,0,"B1", 0,15,   0, 0,    0,"AIS","N/A    ","OK ","OK ",    001119.829,    -086.602,    0058.175,    0006.776,    0067.598
"FRM_AIS_EDR_2209.DAT           ",2005-10-03T06:18:39.05 ,"1/0076400313.64657",    0,    6,  274896,"AIS","B1","B1","B1","B1","PISd",0,0,0,0,"B1", 0,15,   0, 0,    0,"AIS","N/A    ","OK ","OK ",    001109.615,    -086.615,    0063.833,    0007.155,    0067.277
"FRM_AIS_EDR_2209.DAT           ",2005-10-03T06:18:46.59 ,"1/0076400321.34720",    0,    7,  274896,"AIS","B1","B1","B1","B1","PISd",0,0,0,0,"B1", 0,15,   0, 0,    0,"AIS","N/A    ","OK ","OK ",    001099.434,    -086.595,    0069.505,    0007.535,    0066.955
"FRM_AIS_EDR_2209.DAT           ",2005-10-03T06:18:54.14 ,"1/0076400329.04784",    0,    8,  274896,"AIS","B1","B1","B1","B1","PISd",0,0,0,0,"B1", 0,15,   0, 0,    0,"AIS","N/A    ","OK ","OK ",    001089.287,    -086.541,    0075.080,    0007.909,    0066.632
"FRM_AIS_EDR_2209.DAT           ",2005-10-03T06:19:01.68 ,"1/0076400336.40383",    0,    9,  274896,"AIS","B1","B1","B1","B1","PISd",0,0,0,0,"B1", 0,15,   0, 0,    0,"AIS","N/A    ","OK ","OK ",    001079.175,    -086.455,    0080.459,    0008.269,    0066.307
"FRM_AIS_EDR_2209.DAT           ",2005-10-03T06:19:09.22 ,"1/0076400344.10446",    0,   10,  274896,"AIS","B1","B1","B1","B1","PISd",0,0,0,0,"B1", 0,15,   0, 0,    0,"AIS","N/A    ","OK ","OK ",    001069.098,    -086.339,    0085.561,    0008.612,    0065.980
"FRM_AIS_EDR_2209.DAT           ",2005-10-03T06:19:16.77 ,"1/0076400351.46046",    0,   11,  274896,"AIS","B1","B1","B1","B1","PISd",0,0,0,0,"B1", 0,15,   0, 0,    0,"AIS","N/A    ","OK ","OK ",    001059.056,    -086.194,    0090.333,    0008.932,    0065.653
"FRM_AIS_EDR_2209.DAT           ",2005-10-03T06:19:24.31 ,"1/0076400359.16109",    0,   12,  274896,"AIS","B1","B1","B1","B1","PISd",0,0,0,0,"B1", 0,15,   0, 0,    0,"AIS","N/A    ","OK ","OK ",    001049.050,    -086.025,    0094.744,    0009.228,    0065.323
"FRM_AIS_EDR_2209.DAT           ",2005-10-03T06:19:31.85 ,"1/0076400366.51708",    0,   13,  274896,"AIS","B1","B1","B1","B1","PISd",0,0,0,0,"B1", 0,15,   0, 0,    0,"AIS","N/A    ","OK ","OK ",    001039.081,    -085.832,    0098.788,    0009.499,    0064.993
"FRM_AIS_EDR_2209.DAT           ",2005-10-03T06:19:39.40 ,"1/0076400374.21772",    0,   14,  274896,"AIS","B1","B1","B1","B1","PISd",0,0,0,0,"B1", 0,15,   0, 0,    0,"AIS","N/A    ","OK ","OK ",    001029.149,    -085.619,    0102.471,    0009.747,    0064.661
"FRM_AIS_EDR_2209.DAT           ",2005-10-03T06:19:46.94 ,"1/0076400381.57371",    0,   15,  274896,"AIS","B1","B1","B1","B1","PISd",0,0,0,0,"B1", 0,15,   0, 0,    0,"AIS","N/A    ","OK ","OK ",    001019.254,    -085.389,    0105.813,    0009.972,    0064.327
"FRM_AIS_EDR_2209.DAT           ",2005-10-03T06:19:54.48 ,"1/0076400389.27435",    0,   16,  274896,"AIS","B1","B1","B1","B1","PISd",0,0,0,0,"B1", 0,15,   0, 0,    0,"AIS","N/A    ","OK ","OK ",    001009.397,    -085.143,    0108.838,    0010.176,    0063.992
"FRM_AIS_EDR_2209.DAT           ",2005-10-03T06:20:02.03 ,"1/0076400396.63034",    0,   17,  274896,"AIS","B1","B1","B1","B1","PISd",0,0,0,0,"B1", 0,15,   0, 0,    0,"AIS","N/A    ","OK ","OK ",    000999.579,    -084.883,    0111.574,    0010.360,    0063.656
"FRM_AIS_EDR_2209.DAT           ",2005-10-03T06:20:09.57 ,"1/0076400404.33097",    0,   18,  274896,"AIS","B1","B1","B1","B1","PISd",0,0,0,0,"B1", 0,15,   0, 0,    0,"AIS","N/A    ","OK ","OK ",    000989.800,    -084.612,    0114.049,    0010.527,    0063.318
"FRM_AIS_EDR_2209.DAT           ",2005-10-03T06:20:17.11 ,"1/0076400412.03161",    0,   19,  274896,"AIS","B1","B1","B1","B1","PISd",0,0,0,0,"B1", 0,15,   0, 0,    0,"AIS","N/A    ","OK ","OK ",    000980.061,    -084.330,    0116.291,    0010.679,    0062.979
"FRM_AIS_EDR_2209.DAT           ",2005-10-03T06:20:24.65 ,"1/0076400419.38760",    0,   20,  274896,"AIS","B1","B1","B1","B1","PISd",0,0,0,0,"B1", 0,15,   0, 0,    0,"AIS","N/A    ","OK ","OK ",    000970.362,    -084.038,    0118.323,    0010.816,    0062.639
"FRM_AIS_EDR_2209.DAT           ",2005-10-03T06:20:32.20 ,"1/0076400427.08823",    0,   21,  274896,"AIS","B1","B1","B1","B1","PISd",0,0,0,0,"B1", 0,15,   0, 0,    0,"AIS","N/A    ","OK ","OK ",    000960.704,    -083.739,    0120.170,    0010.941,    0062.297
"FRM_AIS_EDR_2209.DAT           ",2005-10-03T06:20:39.74 ,"1/0076400434.44423",    0,   22,  274896,"AIS","B1","B1","B1","B1","PISd",0,0,0,0,"B1", 0,15,   0, 0,    0,"AIS","N/A    ","OK ","OK ",    000951.087,    -083.432,    0121.851,    0011.055,    0061.953
"FRM_AIS_EDR_2209.DAT           ",2005-10-03T06:20:47.28 ,"1/0076400442.14486",    0,   23,  274896,"AIS","B1","B1","B1","B1","PISd",0,0,0,0,"B1", 0,15,   0, 0,    0,"AIS","N/A    ","OK ","OK ",    000941.513,    -083.118,    0123.386,    0011.160,    0061.608
"FRM_AIS_EDR_2209.DAT           ",2005-10-03T06:20:54.83 ,"1/0076400449.50085",    0,   24,  274896,"AIS","B1","B1","B1","B1","PISd",0,0,0,0,"B1", 0,15,   0, 0,    0,"AIS","N/A    ","OK ","OK ",    000931.980,    -082.798,    0124.789,    0011.255,    0061.262
"FRM_AIS_EDR_2209.DAT           ",2005-10-03T06:21:02.37 ,"1/0076400457.20149",    0,   25,  274896,"AIS","B1","B1","B1","B1","PISd",0,0,0,0,"B1", 0,15,   0, 0,    0,"AIS","N/A    ","OK ","OK ",    000922.491,    -082.473,    0126.077,    0011.343,    0060.914
"FRM_AIS_EDR_2209.DAT           ",2005-10-03T06:21:09.91 ,"1/0076400464.55748",    0,   26,  274896,"AIS","B1","B1","B1","B1","PISd",0,0,0,0,"B1", 0,15,   0, 0,    0,"AIS","N/A    ","OK ","OK ",    000913.045,    -082.143,    0127.260,    0011.424,    0060.565
"FRM_AIS_EDR_2209.DAT           ",2005-10-03T06:21:17.46 ,"1/0076400472.25811",    0,   27,  274896,"AIS","B1","B1","B1","B1","PISd",0,0,0,0,"B1", 0,15,   0, 0,    0,"AIS","N/A    ","OK ","OK ",    000903.644,    -081.807,    0128.350,    0011.499,    0060.214
"FRM_AIS_EDR_2209.DAT           ",2005-10-03T06:21:25.00 ,"1/0076400479.61411",    0,   28,  274896,"AIS","B1","B1","B1","B1","PISd",0,0,0,0,"B1", 0,15,   0, 0,    0,"AIS","N/A    ","OK ","OK ",    000894.287,    -081.468,    0129.356,    0011.568,    0059.862
"FRM_AIS_EDR_2209.DAT           ",2005-10-03T06:21:32.54 ,"1/0076400487.31474",    0,   29,  274896,"AIS","B1","B1","B1","B1","PISd",0,0,0,0,"B1", 0,15,   0, 0,    0,"AIS","N/A    ","OK ","OK ",    000884.975,    -081.125,    0130.288,    0011.632,    0059.508
"FRM_AIS_EDR_2209.DAT           ",2005-10-03T06:21:40.09 ,"1/0076400495.01537",    0,   30,  274896,"AIS","B1","B1","B1","B1","PISd",0,0,0,0,"B1", 0,15,   0, 0,    0,"AIS","N/A    ","OK ","OK ",    000875.710,    -080.777,    0131.151,    0011.692,    0059.153
"FRM_AIS_EDR_2209.DAT           ",2005-10-03T06:21:47.63 ,"1/0076400502.37137",    0,   31,  274896,"AIS","B1","B1","B1","B1","PISd",0,0,0,0,"B1", 0,15,   0, 0,    0,"AIS","N/A    ","OK ","OK ",    000866.491,    -080.427,    0131.954,    0011.747,    0058.797
"FRM_AIS_EDR_2209.DAT           ",2005-10-03T06:21:55.17 ,"1/0076400510.07200",    0,   32,  274896,"AIS","B1","B1","B1","B1","PISd",0,0,0,0,"B1", 0,15,   0, 0,    0,"AIS","N/A    ","OK ","OK ",    000857.319,    -080.072,    0132.702,    0011.799,    0058.439
"FRM_AIS_EDR_2209.DAT           ",2005-10-03T06:22:02.72 ,"1/0076400517.42800",    0,   33,  274896,"AIS","B1","B1","B1","B1","PISd",0,0,0,0,"B1", 0,15,   0, 0,    0,"AIS","N/A    ","OK ","OK ",    000848.195,    -079.715,    0133.399,    0011.848,    0058.079
"FRM_AIS_EDR_2209.DAT           ",2005-10-03T06:22:10.26 ,"1/0076400525.12863",    0,   34,  274896,"AIS","B1","B1","B1","B1","PISd",0,0,0,0,"B1", 0,15,   0, 0,    0,"AIS","N/A    ","OK ","OK ",    000839.119,    -079.355,    0134.051,    0011.893,    0057.719
"FRM_AIS_EDR_2209.DAT           ",2005-10-03T06:22:17.80 ,"1/0076400532.48462",    0,   35,  274896,"AIS","B1","B1","B1","B1","PISd",0,0,0,0,"B1", 0,15,   0, 0,    0,"AIS","N/A    ","OK ","OK ",    000830.092,    -078.991,    0134.661,    0011.936,    0057.356
"FRM_AIS_EDR_2209.DAT           ",2005-10-03T06:22:25.35 ,"1/0076400540.18526",    0,   36,  274896,"AIS","B1","B1","B1","B1","PISd",0,0,0,0,"B1", 0,15,   0, 0,    0,"AIS","N/A    ","OK ","OK ",    000821.114,    -078.625,    0135.232,    0011.976,    0056.993
"FRM_AIS_EDR_2209.DAT           ",2005-10-03T06:22:32.89 ,"1/0076400547.54125",    0,   37,  274896,"AIS","B1","B1","B1","B1","PISd",0,0,0,0,"B1", 0,15,   0, 0,    0,"AIS","N/A    ","OK ","OK ",    000812.187,    -078.256,    0135.770,    0012.014,    0056.628
"FRM_AIS_EDR_2209.DAT           ",2005-10-03T06:22:40.43 ,"1/0076400555.24188",    0,   38,  274896,"AIS","B1","B1","B1","B1","PISd",0,0,0,0,"B1", 0,15,   0, 0,    0,"AIS","N/A    ","OK ","OK ",    000803.310,    -077.884,    0136.275,    0012.049,    0056.261
"FRM_AIS_EDR_2209.DAT           ",2005-10-03T06:22:47.98 ,"1/0076400562.59788",    0,   39,  274896,"AIS","B1","B1","B1","B1","PISd",0,0,0,0,"B1", 0,15,   0, 0,    0,"AIS","N/A    ","OK ","OK ",    000794.485,    -077.510,    0136.750,    0012.083,    0055.893
"FRM_AIS_EDR_2209.DAT           ",2005-10-03T06:22:55.52 ,"1/0076400570.29851",    0,   40,  274896,"AIS","B1","B1","B1","B1","PISd",0,0,0,0,"B1", 0,15,   0, 0,    0,"AIS","N/A    ","OK ","OK ",    000785.712,    -077.134,    0137.199,    0012.115,    0055.524
"FRM_AIS_EDR_2209.DAT           ",2005-10-03T06:23:03.06 ,"1/0076400577.65450",    0,   41,  274896,"AIS","B1","B1","B1","B1","PISd",0,0,0,0,"B1", 0,15,   0, 0,    0,"AIS","N/A    ","OK ","OK ",    000776.991,    -076.755,    0137.623,    0012.146,    0055.153
"FRM_AIS_EDR_2209.DAT           ",2005-10-03T06:23:10.61 ,"1/0076400585.35514",    0,   42,  274896,"AIS","B1","B1","B1","B1","PISd",0,0,0,0,"B1", 0,15,   0, 0,    0,"AIS","N/A    ","OK ","OK ",    000768.324,    -076.374,    0138.023,    0012.174,    0054.781
"FRM_AIS_EDR_2209.DAT           ",2005-10-03T06:23:18.15 ,"1/0076400593.05577",    0,   43,  274896,"AIS","B1","B1","B1","B1","PISd",0,0,0,0,"B1", 0,15,   0, 0,    0,"AIS","N/A    ","OK ","OK ",    000759.710,    -075.990,    0138.402,    0012.202,    0054.407
"FRM_AIS_EDR_2209.DAT           ",2005-10-03T06:23:25.69 ,"1/0076400600.41176",    0,   44,  274896,"AIS","B1","B1","B1","B1","PISd",0,0,0,0,"B1", 0,15,   0, 0,    0,"AIS","N/A    ","OK ","OK ",    000751.151,    -075.604,    0138.762,    0012.227,    0054.032
"FRM_AIS_EDR_2209.DAT           ",2005-10-03T06:23:33.24 ,"1/0076400608.11240",    0,   45,  274896,"AIS","B1","B1","B1","B1","PISd",0,0,0,0,"B1", 0,15,   0, 0,    0,"AIS","N/A    ","OK ","OK ",    000742.647,    -075.216,    0139.102,    0012.252,    0053.656
"FRM_AIS_EDR_2209.DAT           ",2005-10-03T06:23:40.78 ,"1/0076400615.46839",    0,   46,  274896,"AIS","B1","B1","B1","B1","PISd",0,0,0,0,"B1", 0,15,   0, 0,    0,"AIS","N/A    ","OK ","OK ",    000734.199,    -074.826,    0139.426,    0012.276,    0053.278
"FRM_AIS_EDR_2209.DAT           ",2005-10-03T06:23:48.32 ,"1/0076400623.16902",    0,   47,  274896,"AIS","B1","B1","B1","B1","PISd",0,0,0,0,"B1", 0,15,   0, 0,    0,"AIS","N/A    ","OK ","OK ",    000725.807,    -074.434,    0139.733,    0012.298,    0052.899
"FRM_AIS_EDR_2209.DAT           ",2005-10-03T06:23:55.86 ,"1/0076400630.52502",    0,   48,  274896,"AIS","B1","B1","B1","B1","PISd",0,0,0,0,"B1", 0,15,   0, 0,    0,"AIS","N/A    ","OK ","OK ",    000717.472,    -074.039,    0140.026,    0012.320,    0052.519
"FRM_AIS_EDR_2209.DAT           ",2005-10-03T06:24:03.41 ,"1/0076400638.22565",    0,   49,  274896,"AIS","B1","B1","B1","B1","PISd",0,0,0,0,"B1", 0,15,   0, 0,    0,"AIS","N/A    ","OK ","OK ",    000709.195,    -073.643,    0140.305,    0012.341,    0052.137
"FRM_AIS_EDR_2209.DAT           ",2005-10-03T06:24:10.95 ,"1/0076400645.58164",    0,   50,  274896,"AIS","B1","B1","B1","B1","PISd",0,0,0,0,"B1", 0,15,   0, 0,    0,"AIS","N/A    ","OK ","OK ",    000700.977,    -073.244,    0140.570,    0012.360,    0051.754
"FRM_AIS_EDR_2209.DAT           ",2005-10-03T06:24:18.49 ,"1/0076400653.28228",    0,   51,  274896,"AIS","B1","B1","B1","B1","PISd",0,0,0,0,"B1", 0,15,   0, 0,    0,"AIS","N/A    ","OK ","OK ",    000692.817,    -072.844,    0140.823,    0012.379,    0051.369
"FRM_AIS_EDR_2209.DAT           ",2005-10-03T06:24:26.04 ,"1/0076400660.63827",    0,   52,  274896,"AIS","B1","B1","B1","B1","PISd",0,0,0,0,"B1", 0,15,   0, 0,    0,"AIS","N/A    ","OK ","OK ",    000684.717,    -072.441,    0141.065,    0012.398,    0050.983
"FRM_AIS_EDR_2209.DAT           ",2005-10-03T06:24:33.58 ,"1/0076400668.33890",    0,   53,  274896,"AIS","B1","B1","B1","B1","PISd",0,0,0,0,"B1", 0,15,   0, 0,    0,"AIS","N/A    ","OK ","OK ",    000676.677,    -072.037,    0141.296,    0012.415,    0050.596
"FRM_AIS_EDR_2209.DAT           ",2005-10-03T06:24:41.12 ,"1/0076400676.03954",    0,   54,  274896,"AIS","B1","B1","B1","B1","PISd",0,0,0,0,"B1", 0,15,   0, 0,    0,"AIS","N/A    ","OK ","OK ",    000668.698,    -071.631,    0141.517,    0012.432,    0050.207
"FRM_AIS_EDR_2209.DAT           ",2005-10-03T06:24:48.67 ,"1/0076400683.39553",    0,   55,  274896,"AIS","B1","B1","B1","B1","PISd",0,0,0,0,"B1", 0,15,   0, 0,    0,"AIS","N/A    ","OK ","OK ",    000660.781,    -071.222,    0141.728,    0012.448,    0049.818
"FRM_AIS_EDR_2209.DAT           ",2005-10-03T06:24:56.21 ,"1/0076400691.09617",    0,   56,  274896,"AIS","B1","B1","B1","B1","PISd",0,0,0,0,"B1", 0,15,   0, 0,    0,"AIS","N/A    ","OK ","OK ",    000652.925,    -070.812,    0141.930,    0012.463,    0049.427
"FRM_AIS_EDR_2209.DAT           ",2005-10-03T06:25:03.75 ,"1/0076400698.45216",    0,   57,  274896,"AIS","B1","B1","B1","B1","PISd",0,0,0,0,"B1", 0,15,   0, 0,    0,"AIS","N/A    ","OK ","OK ",    000645.133,    -070.400,    0142.123,    0012.478,    0049.034
"FRM_AIS_EDR_2209.DAT           ",2005-10-03T06:25:11.30 ,"1/0076400706.15279",    0,   58,  274896,"AIS","B1","B1","B1","B1","PISd",0,0,0,0,"B1", 0,15,   0, 0,    0,"AIS","N/A    ","OK ","OK ",    000637.405,    -069.987,    0142.309,    0012.492,    0048.640
"FRM_AIS_EDR_2209.DAT           ",2005-10-03T06:25:18.84 ,"1/0076400713.50879",    0,   59,  274896,"AIS","B1","B1","B1","B1","PISd",0,0,0,0,"B1", 0,15,   0, 0,    0,"AIS","N/A    ","OK ","OK ",    000629.740,    -069.571,    0142.486,    0012.506,    0048.246
"FRM_AIS_EDR_2209.DAT           ",2005-10-03T06:25:26.38 ,"1/0076400721.20942",    0,   60,  274896,"AIS","B1","B1","B1","B1","PISd",0,0,0,0,"B1", 0,15,   0, 0,    0,"AIS","N/A    ","OK ","OK ",    000622.141,    -069.153,    0142.657,    0012.520,    0047.849
"FRM_AIS_EDR_2209.DAT           ",2005-10-03T06:25:33.93 ,"1/0076400728.56541",    0,   61,  274896,"AIS","B1","B1","B1","B1","PISd",0,0,0,0,"B1", 0,15,   0, 0,    0,"AIS","N/A    ","OK ","OK ",    000614.607,    -068.734,    0142.821,    0012.533,    0047.452
"FRM_AIS_EDR_2209.DAT           ",2005-10-03T06:25:41.47 ,"1/0076400736.26605",    0,   62,  274896,"AIS","B1","B1","B1","B1","PISd",0,0,0,0,"B1", 0,15,   0, 0,    0,"AIS","N/A    ","OK ","OK ",    000607.140,    -068.313,    0142.978,    0012.545,    0047.053
"FRM_AIS_EDR_2209.DAT           ",2005-10-03T06:25:49.01 ,"1/0076400743.62204",    0,   63,  274896,"AIS","B1","B1","B1","B1","PISd",0,0,0,0,"B1", 0,15,   0, 0,    0,"AIS","N/A    ","OK ","OK ",    000599.739,    -067.890,    0143.129,    0012.557,    0046.654
"FRM_AIS_EDR_2209.DAT           ",2005-10-03T06:25:56.56 ,"1/0076400751.32267",    0,   64,  274896,"AIS","B1","B1","B1","B1","PISd",0,0,0,0,"B1", 0,15,   0, 0,    0,"AIS","N/A    ","OK ","OK ",    000592.406,    -067.466,    0143.274,    0012.569,    0046.253
"FRM_AIS_EDR_2209.DAT           ",2005-10-03T06:26:04.10 ,"1/0076400759.02331",    0,   65,  274896,"AIS","B1","B1","B1","B1","PISd",0,0,0,0,"B1", 0,15,   0, 0,    0,"AIS","N/A    ","OK ","OK ",    000585.141,    -067.040,    0143.414,    0012.581,    0045.851
"FRM_AIS_EDR_2209.DAT           ",2005-10-03T06:26:11.64 ,"1/0076400766.37930",    0,   66,  274896,"AIS","B1","B1","B1","B1","PISd",0,0,0,0,"B1", 0,15,   0, 0,    0,"AIS","N/A    ","OK ","OK ",    000577.945,    -066.612,    0143.548,    0012.591,    0045.447
"FRM_AIS_EDR_2209.DAT           ",2005-10-03T06:26:19.19 ,"1/0076400774.07993",    0,   67,  274896,"AIS","B1","B1","B1","B1","PISd",0,0,0,0,"B1", 0,15,   0, 0,    0,"AIS","N/A    ","OK ","OK ",    000570.819,    -066.182,    0143.677,    0012.602,    0045.043
"FRM_AIS_EDR_2209.DAT           ",2005-10-03T06:26:26.73 ,"1/0076400781.43593",    0,   68,  274896,"AIS","B1","B1","B1","B1","PISd",0,0,0,0,"B1", 0,15,   0, 0,    0,"AIS","N/A    ","OK ","OK ",    000563.763,    -065.751,    0143.802,    0012.613,    0044.637
"FRM_AIS_EDR_2209.DAT           ",2005-10-03T06:26:34.27 ,"1/0076400789.13656",    0,   69,  274896,"AIS","B1","B1","B1","B1","PISd",0,0,0,0,"B1", 0,15,   0, 0,    0,"AIS","N/A    ","OK ","OK ",    000556.777,    -065.318,    0143.922,    0012.623,    0044.231
"FRM_AIS_EDR_2209.DAT           ",2005-10-03T06:26:41.82 ,"1/0076400796.49255",    0,   70,  274896,"AIS","B1","B1","B1","B1","PISd",0,0,0,0,"B1", 0,15,   0, 0,    0,"AIS","N/A    ","OK ","OK ",    000549.864,    -064.883,    0144.037,    0012.632,    0043.823
"FRM_AIS_EDR_2209.DAT           ",2005-10-03T06:26:49.36 ,"1/0076400804.19319",    0,   71,  274896,"AIS","B1","B1","B1","B1","PISd",0,0,0,0,"B1", 0,15,   0, 0,    0,"AIS","N/A    ","OK ","OK ",    000543.022,    -064.447,    0144.149,    0012.642,    0043.415
"FRM_AIS_EDR_2209.DAT           ",2005-10-03T06:26:56.90 ,"1/0076400811.54918",    0,   72,  274896,"AIS","B1","B1","B1","B1","PISd",0,0,0,0,"B1", 0,15,   0, 0,    0,"AIS","N/A    ","OK ","OK ",    000536.254,    -064.009,    0144.256,    0012.651,    0043.005
"FRM_AIS_EDR_2209.DAT           ",2005-10-03T06:27:04.44 ,"1/0076400819.24981",    0,   73,  274896,"AIS","B1","B1","B1","B1","PISd",0,0,0,0,"B1", 0,15,   0, 0,    0,"AIS","N/A    ","OK ","OK ",    000529.559,    -063.569,    0144.360,    0012.660,    0042.594
"FRM_AIS_EDR_2209.DAT           ",2005-10-03T06:27:11.99 ,"1/0076400826.60581",    0,   74,  274896,"AIS","B1","B1","B1","B1","PISd",0,0,0,0,"B1", 0,15,   0, 0,    0,"AIS","N/A    ","OK ","OK ",    000522.938,    -063.128,    0144.460,    0012.669,    0042.183
"FRM_AIS_EDR_2209.DAT           ",2005-10-03T06:27:19.53 ,"1/0076400834.30644",    0,   75,  274896,"AIS","B1","B1","B1","B1","PISd",0,0,0,0,"B1", 0,15,   0, 0,    0,"AIS","N/A    ","OK ","OK ",    000516.393,    -062.685,    0144.556,    0012.677,    0041.770
"FRM_AIS_EDR_2209.DAT           ",2005-10-03T06:27:27.07 ,"1/0076400842.00707",    0,   76,  274896,"AIS","B1","B1","B1","B1","PISd",0,0,0,0,"B1", 0,15,   0, 0,    0,"AIS","N/A    ","OK ","OK ",    000509.923,    -062.241,    0144.649,    0012.685,    0041.357
"FRM_AIS_EDR_2209.DAT           ",2005-10-03T06:27:34.62 ,"1/0076400849.36307",    0,   77,  274896,"AIS","B1","B1","B1","B1","PISd",0,0,0,0,"B1", 0,15,   0, 0,    0,"AIS","N/A    ","OK ","OK ",    000503.529,    -061.795,    0144.739,    0012.693,    0040.943
"FRM_AIS_EDR_2209.DAT           ",2005-10-03T06:27:42.16 ,"1/0076400857.06370",    0,   78,  274896,"AIS","B1","B1","B1","B1","PISd",0,0,0,0,"B1", 0,15,   0, 0,    0,"AIS","N/A    ","OK ","OK ",    000497.212,    -061.348,    0144.826,    0012.701,    0040.528
"FRM_AIS_EDR_2209.DAT           ",2005-10-03T06:27:49.70 ,"1/0076400864.41969",    0,   79,  274896,"AIS","B1","B1","B1","B1","PISd",0,0,0,0,"B1", 0,15,   0, 0,    0,"AIS","N/A    ","OK ","OK ",    000490.972,    -060.899,    0144.909,    0012.709,    0040.112
"FRM_AIS_EDR_2209.DAT           ",2005-10-03T06:27:57.25 ,"1/0076400872.12033",    0,   80,  274896,"AIS","B1","B1","B1","B1","PISd",0,0,0,0,"B1", 0,15,   0, 0,    0,"AIS","N/A    ","OK ","OK ",    000484.811,    -060.449,    0144.990,    0012.716,    0039.695
"FRM_AIS_EDR_2209.DAT           ",2005-10-03T06:28:04.79 ,"1/0076400879.47632",    0,   81,  274896,"AIS","B1","B1","B1","B1","PISd",0,0,0,0,"B1", 0,15,   0, 0,    0,"AIS","N/A    ","OK ","OK ",    000478.728,    -059.997,    0145.069,    0012.723,    0039.278
"FRM_AIS_EDR_2209.DAT           ",2005-10-03T06:28:12.33 ,"1/0076400887.17695",    0,   82,  274896,"AIS","B1","B1","B1","B1","PISd",0,0,0,0,"B1", 0,15,   0, 0,    0,"AIS","N/A    ","OK ","OK ",    000472.725,    -059.543,    0145.144,    0012.731,    0038.860
"FRM_AIS_EDR_2209.DAT           ",2005-10-03T06:28:19.88 ,"1/0076400894.53295",    0,   83,  274896,"AIS","B1","B1","B1","B1","PISd",0,0,0,0,"B1", 0,15,   0, 0,    0,"AIS","N/A    ","OK ","OK ",    000466.802,    -059.088,    0145.217,    0012.738,    0038.441
"FRM_AIS_EDR_2209.DAT           ",2005-10-03T06:28:27.42 ,"1/0076400902.23358",    0,   84,  274896,"AIS","B1","B1","B1","B1","PISd",0,0,0,0,"B1", 0,15,   0, 0,    0,"AIS","N/A    ","OK ","OK ",    000460.960,    -058.632,    0145.288,    0012.744,    0038.022
"FRM_AIS_EDR_2209.DAT           ",2005-10-03T06:28:34.96 ,"1/0076400909.58957",    0,   85,  274896,"AIS","B1","B1","B1","B1","PISd",0,0,0,0,"B1", 0,15,   0, 0,    0,"AIS","N/A    ","OK ","OK ",    000455.200,    -058.174,    0145.357,    0012.751,    0037.602
"FRM_AIS_EDR_2209.DAT           ",2005-10-03T06:28:42.51 ,"1/0076400917.29021",    0,   86,  274896,"AIS","B1","B1","B1","B1","PISd",0,0,0,0,"B1", 0,15,   0, 0,    0,"AIS","N/A    ","OK ","OK ",    000449.521,    -057.715,    0145.423,    0012.757,    0037.181
"FRM_AIS_EDR_2209.DAT           ",2005-10-03T06:28:50.05 ,"1/0076400924.64620",    0,   87,  274896,"AIS","B1","B1","B1","B1","PISd",0,0,0,0,"B1", 0,15,   0, 0,    0,"AIS","N/A    ","OK ","OK ",    000443.925,    -057.255,    0145.487,    0012.764,    0036.760
"FRM_AIS_EDR_2209.DAT           ",2005-10-03T06:28:57.59 ,"1/0076400932.34683",    0,   88,  274896,"AIS","B1","B1","B1","B1","PISd",0,0,0,0,"B1", 0,15,   0, 0,    0,"AIS","N/A    ","OK ","OK ",    000438.413,    -056.793,    0145.549,    0012.770,    0036.339
"FRM_AIS_EDR_2209.DAT           ",2005-10-03T06:29:05.14 ,"1/0076400940.04747",    0,   89,  274896,"AIS","B1","B1","B1","B1","PISd",0,0,0,0,"B1", 0,15,   0, 0,    0,"AIS","N/A    ","OK ","OK ",    000432.984,    -056.329,    0145.609,    0012.776,    0035.917
"FRM_AIS_EDR_2209.DAT           ",2005-10-03T06:29:12.68 ,"1/0076400947.40346",    0,   90,  274896,"AIS","B1","B1","B1","B1","PISd",0,0,0,0,"B1", 0,15,   0, 0,    0,"AIS","N/A    ","OK ","OK ",    000427.640,    -055.865,    0145.667,    0012.782,    0035.495